| time (UTC) | temp F | wind direction | speed knots | gust knots | rain 1hr in | rain 24hr in | rain mn in | humidity % | barometer mb |
| 20260506135820 | 53 | 253 | 4.3 | 12.2 | 0.00 | 0.00 | 0.00 | 30 | 1009.8 |
| 20260506134915 | 52 | 228 | 5.2 | 10.4 | 0.00 | 0.00 | 0.00 | 32 | 1010.0 |
| 20260506133948 | 52 | 195 | 4.3 | 11.3 | 0.00 | 0.00 | 0.00 | 37 | 1009.9 |
| 20260506133030 | 51 | 180 | 5.2 | 11.3 | 0.00 | 0.00 | 0.00 | 40 | 1010.1 |
| 20260506132140 | 51 | 186 | 4.3 | 12.2 | 0.00 | 0.00 | 0.00 | 41 | 1010.2 |
| 20260506131225 | 50 | 212 | 6.1 | 12.2 | 0.00 | 0.00 | 0.00 | 42 | 1010.3 |
| 20260506130357 | 52 | 240 | 4.3 | 9.6 | 0.00 | 0.00 | 0.00 | 36 | 1010.1 |
| 20260506125455 | 51 | 244 | 5.2 | 12.2 | 0.00 | 0.00 | 0.00 | 25 | 1010.3 |
| 20260506124535 | 51 | 272 | 4.3 | 9.6 | 0.00 | 0.00 | 0.00 | 25 | 1010.2 |
| 20260506123640 | 51 | 289 | 6.1 | 14.8 | 0.00 | 0.00 | 0.00 | 27 | 1010.1 |
| 20260506122740 | 51 | 330 | 5.2 | 11.3 | 0.00 | 0.00 | 0.00 | 27 | 1010.1 |
| 20260506121855 | 52 | 301 | 3.5 | 12.2 | 0.00 | 0.00 | 0.00 | 26 | 1009.9 |
| 20260506121004 | 51 | 320 | 3.5 | 9.6 | 0.00 | 0.00 | 0.00 | 25 | 1009.9 |
| 20260506120110 | 52 | 294 | 4.3 | 10.4 | 0.00 | 0.00 | 0.00 | 24 | 1009.7 |
| 20260506115145 | 53 | 292 | 6.1 | 14.8 | 0.00 | 0.00 | 0.00 | 24 | 1009.8 |
| 20260506114327 | 52 | 290 | 5.2 | 14.8 | 0.00 | 0.00 | 0.00 | 25 | 1009.7 |
| 20260506113405 | 52 | 259 | 4.3 | 11.3 | 0.00 | 0.00 | 0.00 | 25 | 1009.7 |
| 20260506112510 | 53 | 249 | 5.2 | 13.0 | 0.00 | 0.00 | 0.00 | 25 | 1009.7 |
| 20260506111610 | 51 | 229 | 5.2 | 10.4 | 0.00 | 0.00 | 0.00 | 26 | 1010.0 |
| 20260506110645 | 51 | 279 | 4.3 | 10.4 | 0.00 | 0.00 | 0.00 | 26 | 1010.1 |
| 20260506105743 | 50 | 282 | 6.1 | 14.8 | 0.00 | 0.00 | 0.00 | 26 | 1010.2 |
| 20260506104840 | 51 | 298 | 4.3 | 13.0 | 0.00 | 0.00 | 0.00 | 26 | 1009.8 |
| 20260506103944 | 51 | 283 | 3.5 | 12.2 | 0.00 | 0.00 | 0.00 | 27 | 1009.9 |
| 20260506103040 | 51 | 247 | 5.2 | 18.2 | 0.00 | 0.00 | 0.00 | 28 | 1010.1 |
| 20260506102200 | 50 | 230 | 3.5 | 9.6 | 0.00 | 0.00 | 0.00 | 28 | 1010.2 |
| 20260506101336 | 50 | 264 | 4.3 | 9.6 | 0.00 | 0.00 | 0.00 | 29 | 1010.4 |
| 20260506100415 | 50 | 268 | 4.3 | 12.2 | 0.00 | 0.00 | 0.00 | 29 | 1010.2 |
| 20260506095509 | 50 | 321 | 3.5 | 8.7 | 0.00 | 0.00 | 0.00 | 28 | 1010.3 |
| 20260506094610 | 48 | 312 | 6.1 | 13.0 | 0.00 | 0.00 | 0.00 | 29 | 1010.3 |
| 20260506093805 | 50 | 256 | 3.5 | 12.2 | 0.00 | 0.00 | 0.00 | 30 | 1009.9 |
| 20260506092835 | 51 | 252 | 3.5 | 12.2 | 0.00 | 0.00 | 0.00 | 30 | 1009.7 |
| 20260506091920 | 48 | 244 | 4.3 | 10.4 | 0.00 | 0.00 | 0.00 | 31 | 1010.5 |
| 20260506091028 | 48 | 292 | 4.3 | 12.2 | 0.00 | 0.00 | 0.00 | 32 | 1010.7 |
| 20260506090055 | 48 | 308 | 5.2 | 12.2 | 0.00 | 0.00 | 0.00 | 34 | 1010.5 |
| 20260506085155 | 48 | 282 | 4.3 | 12.2 | 0.00 | 0.00 | 0.00 | 34 | 1010.6 |
| 20260506084240 | 47 | 298 | 3.5 | 13.0 | 0.00 | 0.00 | 0.00 | 36 | 1010.4 |
| 20260506083420 | 47 | 290 | 3.5 | 8.7 | 0.00 | 0.00 | 0.00 | 37 | 1010.7 |
| 20260506082550 | 47 | 263 | 6.1 | 14.8 | 0.00 | 0.00 | 0.00 | 38 | 1010.6 |
| 20260506081632 | 48 | 305 | 4.3 | 12.2 | 0.00 | 0.00 | 0.00 | 37 | 1010.4 |
| 20260506080720 | 47 | 288 | 4.3 | 12.2 | 0.00 | 0.00 | 0.00 | 38 | 1010.7 |
| 20260506073112 | 46 | 271 | 5.2 | 11.3 | 0.00 | 0.00 | 0.00 | 42 | 1010.4 |
| 20260506072235 | 46 | 288 | 3.5 | 9.6 | 0.00 | 0.00 | 0.00 | 44 | 1010.3 |
| 20260506071322 | 46 | 272 | 4.3 | 13.9 | 0.00 | 0.00 | 0.00 | 45 | 1010.4 |
| 20260506070420 | 46 | 281 | 6.1 | 13.9 | 0.00 | 0.00 | 0.00 | 45 | 1010.4 |
| 20260506061850 | 44 | 278 | 3.5 | 8.7 | 0.00 | 0.00 | 0.00 | 49 | 1010.4 |
| 20260506060925 | 44 | 267 | 3.5 | 8.7 | 0.00 | 0.00 | 0.00 | 52 | 1010.5 |
| 20260506050631 | 41 | 293 | 3.5 | 9.6 | 0.00 | 0.00 | 0.00 | 61 | 1010.5 |
| 20260506044910 | 39 | 270 | 4.3 | 8.7 | 0.00 | 0.00 | 0.00 | 63 | 1010.5 |
| 20260506044025 | 39 | 284 | 4.3 | 8.7 | 0.00 | 0.00 | 0.00 | 65 | 1010.5 |
| 20260506043114 | 38 | 280 | 3.5 | 8.7 | 0.00 | 0.00 | 0.00 | 65 | 1010.6 |
| 20260506042135 | 38 | 278 | 3.5 | 8.7 | 0.00 | 0.00 | 0.00 | 66 | 1010.6 |
| 20260506041205 | 37 | 273 | 3.5 | 7.0 | 0.00 | 0.00 | 0.00 | 68 | 1010.7 |
| 20260506040250 | 36 | 262 | 2.6 | 6.1 | 0.00 | 0.00 | 0.00 | 70 | 1010.8 |
| 20260506035410 | 35 | 238 | 2.6 | 7.0 | 0.00 | 0.00 | 0.00 | 71 | 1010.8 |
| 20260506034452 | 35 | 225 | 2.6 | 5.2 | 0.00 | 0.00 | 0.00 | 72 | 1010.8 |
| 20260506033540 | 34 | 215 | 1.7 | 3.5 | 0.00 | 0.00 | 0.00 | 72 | 1010.7 |
| 20260506032655 | 34 | 211 | 1.7 | 2.6 | 0.00 | 0.00 | 0.00 | 72 | 1010.7 |
| 20260506031735 | 34 | 213 | 1.7 | 3.5 | 0.00 | 0.00 | 0.00 | 72 | 1010.6 |
| 20260506030850 | 34 | 222 | 1.7 | 4.3 | 0.00 | 0.00 | 0.00 | 72 | 1010.5 |
| 20260506025948 | 33 | 252 | 1.7 | 3.5 | 0.00 | 0.00 | 0.00 | 72 | 1010.4 |
| 20260506025015 | 33 | 250 | 1.7 | 3.5 | 0.00 | 0.00 | 0.00 | 72 | 1010.4 |
| 20260506024130 | 33 | 229 | 2.6 | 4.3 | 0.00 | 0.00 | 0.00 | 72 | 1010.3 |
| 20260506023230 | 33 | 223 | 2.6 | 4.3 | 0.00 | 0.00 | 0.00 | 73 | 1010.2 |
| 20260506022329 | 33 | 220 | 1.7 | 3.5 | 0.00 | 0.00 | 0.00 | 72 | 1010.2 |
| 20260506021447 | 33 | 206 | 1.7 | 3.5 | 0.00 | 0.00 | 0.00 | 71 | 1010.0 |
| 20260506020555 | 34 | 213 | 1.7 | 3.5 | 0.00 | 0.00 | 0.00 | 71 | 1009.9 |
| 20260506015610 | 34 | 254 | 1.7 | 4.3 | 0.00 | 0.00 | 0.00 | 71 | 1009.9 |
| 20260506014705 | 34 | 269 | 1.7 | 4.3 | 0.00 | 0.00 | 0.00 | 71 | 1009.8 |
| 20260506013740 | 34 | 268 | 2.6 | 4.3 | 0.00 | 0.00 | 0.00 | 70 | 1009.7 |
| 20260506012830 | 34 | 267 | 2.6 | 5.2 | 0.00 | 0.00 | 0.00 | 70 | 1009.7 |
| 20260506011940 | 34 | 264 | 3.5 | 7.8 | 0.00 | 0.00 | 0.00 | 70 | 1009.7 |
| 20260506011030 | 34 | 265 | 3.5 | 6.1 | 0.00 | 0.00 | 0.00 | 70 | 1009.6 |
| 20260506010130 | 35 | 264 | 3.5 | 6.1 | 0.00 | 0.00 | 0.00 | 70 | 1009.5 |
| 20260506005235 | 35 | 261 | 3.5 | 6.1 | 0.00 | 0.00 | 0.00 | 70 | 1009.4 |
| 20260506004335 | 35 | 259 | 3.5 | 7.8 | 0.00 | 0.00 | 0.00 | 69 | 1009.3 |
| 20260506003444 | 35 | 253 | 2.6 | 6.1 | 0.00 | 0.00 | 0.00 | 69 | 1009.2 |
| 20260506002555 | 35 | 250 | 2.6 | 6.1 | 0.00 | 0.00 | 0.00 | 69 | 1009.1 |
| 20260506001705 | 35 | 253 | 2.6 | 5.2 | 0.00 | 0.00 | 0.00 | 68 | 1009.1 |
| 20260506000745 | 35 | 247 | 2.6 | 4.3 | 0.00 | 0.00 | 0.00 | 68 | 1008.9 |
| 20260505235835 | 35 | 254 | 3.5 | 6.1 | 0.00 | 0.00 | 0.00 | 67 | 1008.8 |
| 20260505234955 | 36 | 253 | 2.6 | 5.2 | 0.00 | 0.00 | 0.00 | 67 | 1008.7 |
| 20260505234120 | 36 | 258 | 3.5 | 5.2 | 0.00 | 0.00 | 0.00 | 66 | 1008.6 |
| 20260505233149 | 36 | 262 | 4.3 | 7.8 | 0.00 | 0.00 | 0.00 | 66 | 1008.4 |
| 20260505232250 | 36 | 261 | 3.5 | 7.0 | 0.00 | 0.00 | 0.00 | 65 | 1008.4 |
| 20260505231355 | 36 | 264 | 3.5 | 5.2 | 0.00 | 0.00 | 0.00 | 65 | 1008.3 |
| 20260505230435 | 37 | 268 | 3.5 | 6.1 | 0.00 | 0.00 | 0.00 | 64 | 1008.3 |
| 20260505225535 | 37 | 268 | 3.5 | 7.8 | 0.00 | 0.00 | 0.00 | 63 | 1008.1 |
| 20260505224640 | 37 | 278 | 2.6 | 7.0 | 0.00 | 0.00 | 0.00 | 63 | 1008.0 |
| 20260505223735 | 37 | 269 | 3.5 | 7.0 | 0.00 | 0.00 | 0.00 | 62 | 1007.9 |
| 20260505222840 | 37 | 270 | 3.5 | 7.0 | 0.00 | 0.00 | 0.00 | 62 | 1007.9 |
| 20260505221955 | 38 | 269 | 3.5 | 7.0 | 0.00 | 0.00 | 0.00 | 61 | 1007.8 |
| 20260505221120 | 38 | 272 | 3.5 | 7.0 | 0.00 | 0.00 | 0.00 | 61 | 1007.8 |
| 20260505220230 | 38 | 270 | 3.5 | 7.0 | 0.00 | 0.00 | 0.00 | 60 | 1007.7 |
| 20260505215340 | 38 | 268 | 3.5 | 8.7 | 0.00 | 0.00 | 0.00 | 60 | 1007.7 |
| 20260505214450 | 39 | 269 | 4.3 | 8.7 | 0.00 | 0.00 | 0.00 | 59 | 1007.5 |
| 20260505213531 | 39 | 267 | 3.5 | 9.6 | 0.00 | 0.00 | 0.00 | 58 | 1007.4 |
| 20260505212640 | 39 | 268 | 3.5 | 7.0 | 0.00 | 0.00 | 0.00 | 58 | 1007.3 |
| 20260505211810 | 39 | 267 | 3.5 | 7.0 | 0.00 | 0.00 | 0.00 | 58 | 1007.3 |
| 20260505210915 | 39 | 264 | 2.6 | 5.2 | 0.00 | 0.00 | 0.00 | 57 | 1007.2 |
| 20260505210006 | 40 | 268 | 3.5 | 6.1 | 0.00 | 0.00 | 0.00 | 56 | 1007.0 |
| 20260505205110 | 40 | 270 | 3.5 | 7.0 | 0.00 | 0.00 | 0.00 | 55 | 1006.9 |
| 20260505204156 | 41 | 272 | 3.5 | 7.0 | 0.00 | 0.00 | 0.00 | 54 | 1006.6 |
| 20260505203325 | 41 | 269 | 3.5 | 8.7 | 0.00 | 0.00 | 0.00 | 54 | 1006.4 |
| 20260505202434 | 41 | 268 | 3.5 | 7.0 | 0.00 | 0.00 | 0.00 | 53 | 1006.3 |
| 20260505201520 | 41 | 269 | 3.5 | 8.7 | 0.00 | 0.00 | 0.00 | 53 | 1006.2 |
| 20260505200615 | 41 | 273 | 4.3 | 7.0 | 0.00 | 0.00 | 0.00 | 52 | 1006.1 |
| 20260505195705 | 42 | 271 | 4.3 | 8.7 | 0.00 | 0.00 | 0.00 | 51 | 1005.9 |
| 20260505194800 | 42 | 272 | 3.5 | 7.0 | 0.00 | 0.00 | 0.00 | 50 | 1005.7 |
| 20260505193930 | 43 | 271 | 4.3 | 11.3 | 0.00 | 0.00 | 0.00 | 50 | 1005.6 |
| 20260505193020 | 43 | 266 | 4.3 | 11.3 | 0.00 | 0.00 | 0.00 | 49 | 1005.5 |
| 20260505192120 | 43 | 264 | 6.1 | 14.8 | 0.00 | 0.00 | 0.00 | 48 | 1005.4 |
| 20260505191218 | 43 | 263 | 5.2 | 9.6 | 0.00 | 0.00 | 0.00 | 47 | 1005.2 |
| 20260505190302 | 44 | 264 | 5.2 | 9.6 | 0.00 | 0.00 | 0.00 | 46 | 1005.0 |
| 20260505185420 | 44 | 261 | 5.2 | 11.3 | 0.00 | 0.00 | 0.00 | 45 | 1004.9 |
| 20260505184600 | 44 | 258 | 5.2 | 12.2 | 0.00 | 0.00 | 0.00 | 45 | 1004.8 |
| 20260505183705 | 45 | 257 | 5.2 | 13.0 | 0.00 | 0.00 | 0.00 | 44 | 1004.6 |
| 20260505182815 | 45 | 267 | 5.2 | 9.6 | 0.00 | 0.00 | 0.00 | 43 | 1004.4 |
| 20260505181910 | 46 | 264 | 5.2 | 11.3 | 0.00 | 0.00 | 0.00 | 42 | 1004.1 |
| 20260505181010 | 46 | 263 | 6.1 | 12.2 | 0.00 | 0.00 | 0.00 | 42 | 1003.9 |
| 20260505180130 | 47 | 267 | 5.2 | 9.6 | 0.00 | 0.00 | 0.00 | 42 | 1003.7 |
| 20260505175310 | 47 | 273 | 6.1 | 13.0 | 0.00 | 0.00 | 0.00 | 41 | 1003.6 |
| 20260505174430 | 47 | 260 | 7.0 | 13.0 | 0.00 | 0.00 | 0.00 | 40 | 1003.4 |
| 20260505173605 | 47 | 262 | 7.8 | 16.5 | 0.00 | 0.00 | 0.00 | 40 | 1003.3 |
| 20260505172650 | 48 | 267 | 5.2 | 10.4 | 0.00 | 0.00 | 0.00 | 39 | 1003.1 |
| 20260505171815 | 48 | 265 | 7.0 | 12.2 | 0.00 | 0.00 | 0.00 | 40 | 1003.0 |
| 20260505170910 | 49 | 262 | 4.3 | 11.3 | 0.00 | 0.00 | 0.00 | 39 | 1002.9 |
| 20260505170025 | 49 | 259 | 5.2 | 11.3 | 0.00 | 0.00 | 0.00 | 39 | 1002.9 |
| 20260505165120 | 48 | 269 | 7.8 | 16.5 | 0.00 | 0.00 | 0.00 | 38 | 1002.8 |
| 20260505164156 | 50 | 276 | 7.0 | 18.2 | 0.00 | 0.00 | 0.00 | 36 | 1002.5 |
| 20260505163255 | 50 | 276 | 7.8 | 18.2 | 0.00 | 0.00 | 0.00 | 34 | 1002.4 |
| 20260505162409 | 50 | 276 | 6.1 | 14.8 | 0.00 | 0.00 | 0.00 | 33 | 1002.2 |
| 20260505161530 | 51 | 264 | 6.1 | 14.8 | 0.00 | 0.00 | 0.00 | 32 | 1002.1 |
| 20260505160625 | 50 | 259 | 8.7 | 20.9 | 0.00 | 0.00 | 0.00 | 35 | 1002.1 |
| 20260505153003 | 51 | 258 | 8.7 | 19.1 | 0.00 | 0.00 | 0.00 | 33 | 1001.5 |
| 20260505152110 | 52 | 272 | 7.0 | 15.6 | 0.00 | 0.00 | 0.00 | 32 | 1001.3 |
| 20260505151215 | 52 | 280 | 6.1 | 13.0 | 0.00 | 0.00 | 0.00 | 33 | 1001.4 |
| 20260505150240 | 51 | 286 | 3.5 | 10.4 | 0.00 | 0.00 | 0.00 | 34 | 1001.5 |